Weather in Sputnik

Russia / Tomsk District     56°34′12″N   84°58′58″E
temp.,
°C
wind,
m/s
gust,
m/s
humid.,
%
clouds,
%
prec.,
mm/h
press.,
hPa
HPBL,
m
20 may, fri
fri2001:00+16wsw41065100 2.3 1006330
04:00+13sw413634 0.0 1008455
07:00+14sw613485 0.0 10101262
10:00+17sw712404 0.0 10112096
13:00+20wsw6103060 0.0 10112910
16:00+22sw6112575 0.0 10103369
19:00+21sw5103075 0.0 10082630
22:00+17sw4113999 0.0 1009404
21 may, sat
sat2101:00+16sw4104721 0.0 1009822
04:00+13sw41176100 0.4 1009711
07:00+13wsw597854 0.7 1010928
10:00+16wsw7114491 0.0 10112019
13:00+19wsw6102995 0.0 10112050
16:00+17w4834100 0.0 1010880
19:00+20nw253759 0.0 1009789
22:00+13e35565 0.0 100986
22 may, sun
sun2201:00+12se24765 0.3 100763
04:00+11e22858 0.0 100633
07:00+15se22729 0.0 100683
10:00+24e11435 0.0 1005554
13:00+28e333227 0.0 10031938
16:00+28e5531100 0.0 10032435
19:00+25e5843100 0.0 1003857
22:00+21e5145379 0.0 1004446
23 may, mon
mon2301:00+18ese3106235 0.0 1006343
04:00+14sw2281100 0.1 100837
07:00+15wnw51050100 0.1 10131027
10:00+15w5736100 0.0 10161124
13:00+19wsw57291 0.0 10181868
16:00+21wsw56234 0.0 10182271
19:00+20wsw46285 0.0 10191961
22:00+13ssw2246100 0.0 102015
24 may, tue
tue2401:00+11s2256100 0.0 102019
04:00+10sse235792 0.0 102055
07:00+12sse275830 0.0 1020182
10:00+19s34364 0.0 1019754
13:00+23sw23270 0.0 10181612
16:00+26sw122623 0.0 10161789
19:00+25sw0129100 0.0 10161699
22:00+17se225256 0.0 101725